| time (UTC) | temp F | wind direction | speed MPH | gust MPH | rain 1hr in | rain 24hr in | rain mn in | humidity % | barometer mb |
| 20260504150728 | 55 | 73 | 12.0 | 14.0 | 0.00 | 0.00 | 0.00 | 41 | 1005.5 |
| 20260504150225 | 54 | 100 | 12.0 | 15.0 | 0.00 | 0.00 | 0.00 | 41 | 1005.5 |
| 20260504141154 | 54 | 304 | 2.0 | 4.0 | 0.00 | 0.00 | 0.00 | 39 | 1005.2 |
| 20260504140651 | 54 | 280 | 2.0 | 6.0 | 0.00 | 0.00 | 0.00 | 42 | 1005.4 |
| 20260504140146 | 52 | 347 | 6.0 | 9.0 | 0.00 | 0.00 | 0.00 | 43 | 1005.4 |
| 20260504130615 | 47 | 340 | 4.0 | 7.0 | 0.00 | 0.00 | 0.00 | 47 | 1004.7 |
| 20260504130112 | 47 | 288 | 8.0 | 13.0 | 0.00 | 0.00 | 0.00 | 47 | 1004.6 |
| 20260504110503 | 46 | 300 | 9.0 | 14.0 | 0.00 | 0.00 | 0.00 | 46 | 1004.0 |
| 20260504100425 | 44 | 316 | 13.0 | 15.0 | 0.00 | 0.00 | 0.00 | 50 | 1004.0 |
| 20260504081818 | 46 | 296 | 9.0 | 11.0 | 0.00 | 0.00 | 0.00 | 50 | 1004.6 |
| 20260504081314 | 46 | 287 | 10.0 | 11.0 | 0.00 | 0.00 | 0.00 | 49 | 1004.7 |
| 20260504080810 | 47 | 312 | 5.0 | 8.0 | 0.00 | 0.00 | 0.00 | 49 | 1004.7 |
| 20260504080308 | 48 | 313 | 6.0 | 10.0 | 0.00 | 0.00 | 0.00 | 48 | 1004.7 |
| 20260504070235 | 50 | 294 | 10.0 | 11.0 | 0.00 | 0.00 | 0.00 | 44 | 1005.1 |
| 20260504060155 | 51 | 347 | 8.0 | 10.0 | 0.00 | 0.00 | 0.00 | 54 | 1005.4 |
| 20260504050623 | 51 | 246 | 4.0 | 7.0 | 0.00 | 0.00 | 0.00 | 47 | 1005.9 |
| 20260504050121 | 51 | 296 | 7.0 | 9.0 | 0.00 | 0.00 | 0.00 | 46 | 1005.8 |
| 20260504045618 | 51 | 286 | 6.0 | 8.0 | 0.00 | 0.00 | 0.00 | 46 | 1005.9 |
| 20260504045112 | 51 | 235 | 3.0 | 7.0 | 0.00 | 0.00 | 0.00 | 48 | 1006.0 |
| 20260504044610 | 52 | 298 | 7.0 | 8.0 | 0.00 | 0.00 | 0.00 | 46 | 1005.9 |
| 20260504044107 | 52 | 300 | 7.0 | 9.0 | 0.00 | 0.00 | 0.00 | 45 | 1006.0 |
| 20260504043604 | 53 | 278 | 8.0 | 9.0 | 0.00 | 0.00 | 0.00 | 43 | 1005.9 |
| 20260504043101 | 56 | 285 | 4.0 | 4.0 | 0.00 | 0.00 | 0.00 | 39 | 1006.1 |
| 20260504042558 | 57 | 278 | 4.0 | 4.0 | 0.00 | 0.00 | 0.00 | 38 | 1006.0 |
| 20260504042055 | 58 | 295 | 3.0 | 3.0 | 0.00 | 0.00 | 0.00 | 37 | 1005.9 |
| 20260504041551 | 56 | 284 | 3.0 | 3.0 | 0.00 | 0.00 | 0.00 | 38 | 1005.9 |
| 20260504041047 | 56 | 272 | 3.0 | 3.0 | 0.00 | 0.00 | 0.00 | 39 | 1006.0 |
| 20260504040545 | 55 | 278 | 3.0 | 4.0 | 0.00 | 0.00 | 0.00 | 40 | 1005.7 |
| 20260504040041 | 56 | 277 | 2.0 | 3.0 | 0.00 | 0.00 | 0.00 | 39 | 1005.8 |
| 20260504035538 | 57 | 308 | 2.0 | 2.0 | 0.00 | 0.00 | 0.00 | 40 | 1005.9 |
| 20260504035034 | 58 | 342 | 2.0 | 2.0 | 0.00 | 0.00 | 0.00 | 37 | 1005.8 |
| 20260504034533 | 58 | 347 | 2.0 | 3.0 | 0.00 | 0.00 | 0.00 | 37 | 1005.7 |
| 20260504034029 | 57 | 336 | 3.0 | 3.0 | 0.00 | 0.00 | 0.00 | 39 | 1005.7 |
| 20260504033528 | 58 | 345 | 2.0 | 3.0 | 0.00 | 0.00 | 0.00 | 38 | 1006.0 |
| 20260504033024 | 58 | 359 | 2.0 | 3.0 | 0.00 | 0.00 | 0.00 | 37 | 1005.7 |
| 20260504032521 | 58 | 351 | 2.0 | 2.0 | 0.00 | 0.00 | 0.00 | 37 | 1005.8 |
| 20260504032018 | 59 | 357 | 3.0 | 3.0 | 0.00 | 0.00 | 0.00 | 36 | 1005.5 |
| 20260504031515 | 58 | 349 | 3.0 | 3.0 | 0.00 | 0.00 | 0.00 | 36 | 1005.5 |
| 20260504031011 | 58 | 352 | 2.0 | 2.0 | 0.00 | 0.00 | 0.00 | 37 | 1005.4 |
| 20260504030509 | 58 | 353 | 0.0 | 0.0 | 0.00 | 0.00 | 0.00 | 37 | 1005.5 |
| 20260504030004 | 58 | 6 | 0.0 | 1.0 | 0.00 | 0.00 | 0.00 | 39 | 1005.5 |
| 20260504025501 | 58 | 3 | 1.0 | 3.0 | 0.00 | 0.00 | 0.00 | 39 | 1005.4 |
| 20260504024958 | 58 | 14 | 4.0 | 4.0 | 0.00 | 0.00 | 0.00 | 40 | 1005.0 |
| 20260504024455 | 59 | 1 | 5.0 | 6.0 | 0.00 | 0.00 | 0.00 | 38 | 1005.0 |
| 20260504023952 | 59 | 2 | 4.0 | 7.0 | 0.00 | 0.00 | 0.00 | 37 | 1005.1 |
| 20260504023449 | 59 | 32 | 6.0 | 7.0 | 0.00 | 0.00 | 0.00 | 36 | 1005.1 |
| 20260504022944 | 59 | 23 | 4.0 | 7.0 | 0.00 | 0.00 | 0.00 | 37 | 1005.1 |
| 20260504022441 | 60 | 29 | 5.0 | 8.0 | 0.00 | 0.00 | 0.00 | 37 | 1005.0 |
| 20260504021937 | 60 | 44 | 5.0 | 7.0 | 0.00 | 0.00 | 0.00 | 36 | 1005.1 |
| 20260504021435 | 61 | 31 | 6.0 | 9.0 | 0.00 | 0.00 | 0.00 | 36 | 1004.8 |
| 20260504020932 | 61 | 25 | 6.0 | 10.0 | 0.00 | 0.00 | 0.00 | 35 | 1005.0 |
| 20260504020428 | 61 | 43 | 7.0 | 10.0 | 0.00 | 0.00 | 0.00 | 36 | 1005.0 |
| 20260504015925 | 62 | 48 | 7.0 | 9.0 | 0.00 | 0.00 | 0.00 | 35 | 1005.0 |
| 20260504015421 | 62 | 12 | 8.0 | 9.0 | 0.00 | 0.00 | 0.00 | 35 | 1004.8 |
| 20260504014917 | 63 | 40 | 8.0 | 10.0 | 0.00 | 0.00 | 0.00 | 34 | 1004.8 |
| 20260504014414 | 63 | 17 | 9.0 | 13.0 | 0.00 | 0.00 | 0.00 | 32 | 1004.7 |
| 20260504013910 | 64 | 18 | 7.0 | 9.0 | 0.00 | 0.00 | 0.00 | 34 | 1005.0 |
| 20260504013409 | 64 | 26 | 7.0 | 11.0 | 0.00 | 0.00 | 0.00 | 33 | 1004.6 |
| 20260504012905 | 65 | 48 | 9.0 | 10.0 | 0.00 | 0.00 | 0.00 | 32 | 1004.6 |
| 20260504012403 | 65 | 17 | 9.0 | 11.0 | 0.00 | 0.00 | 0.00 | 31 | 1004.6 |
| 20260504011900 | 66 | 18 | 9.0 | 13.0 | 0.00 | 0.00 | 0.00 | 31 | 1004.7 |
| 20260504011357 | 66 | 39 | 10.0 | 11.0 | 0.00 | 0.00 | 0.00 | 31 | 1005.0 |
| 20260504010852 | 67 | 39 | 7.0 | 10.0 | 0.00 | 0.00 | 0.00 | 31 | 1004.8 |
| 20260504010348 | 67 | 42 | 12.0 | 15.0 | 0.00 | 0.00 | 0.00 | 29 | 1004.8 |
| 20260504005845 | 67 | 23 | 14.0 | 19.0 | 0.00 | 0.00 | 0.00 | 29 | 1004.7 |
| 20260504005342 | 67 | 14 | 14.0 | 23.0 | 0.00 | 0.00 | 0.00 | 25 | 1005.0 |
| 20260504004839 | 71 | 3 | 9.0 | 11.0 | 0.00 | 0.00 | 0.00 | 20 | 1004.7 |
| 20260504004337 | 70 | 3 | 4.0 | 6.0 | 0.00 | 0.00 | 0.00 | 21 | 1004.8 |
| 20260504003833 | 70 | 7 | 3.0 | 4.0 | 0.00 | 0.00 | 0.00 | 19 | 1004.6 |
| 20260504003330 | 70 | 326 | 3.0 | 6.0 | 0.00 | 0.00 | 0.00 | 19 | 1005.1 |
| 20260504002827 | 70 | 341 | 3.0 | 7.0 | 0.00 | 0.00 | 0.00 | 17 | 1004.7 |
| 20260504002324 | 68 | 326 | 2.0 | 9.0 | 0.00 | 0.00 | 0.00 | 20 | 1004.7 |
| 20260504001821 | 68 | 0 | 5.0 | 7.0 | 0.00 | 0.00 | 0.00 | 18 | 1004.8 |
| 20260504001318 | 68 | 9 | 6.0 | 8.0 | 0.00 | 0.00 | 0.00 | 22 | 1005.1 |
| 20260504000815 | 68 | 354 | 7.0 | 10.0 | 0.00 | 0.00 | 0.00 | 20 | 1005.1 |
| 20260504000312 | 68 | 18 | 8.0 | 11.0 | 0.00 | 0.00 | 0.00 | 21 | 1005.1 |
| 20260503235810 | 69 | 25 | 8.0 | 11.0 | 0.00 | 0.00 | 0.00 | 21 | 1004.8 |
| 20260503235307 | 70 | 354 | 10.0 | 21.0 | 0.00 | 0.00 | 0.00 | 19 | 1004.8 |
| 20260503234804 | 70 | 348 | 9.0 | 11.0 | 0.00 | 0.00 | 0.00 | 22 | 1005.0 |
| 20260503234257 | 69 | 355 | 12.0 | 14.0 | 0.00 | 0.00 | 0.00 | 25 | 1004.8 |
| 20260503233754 | 70 | 19 | 8.0 | 19.0 | 0.00 | 0.00 | 0.00 | 22 | 1005.1 |
| 20260503233249 | 72 | 10 | 6.0 | 9.0 | 0.00 | 0.00 | 0.00 | 18 | 1004.8 |
| 20260503232747 | 72 | 310 | 3.0 | 6.0 | 0.00 | 0.00 | 0.00 | 19 | 1004.8 |
| 20260503232244 | 70 | 358 | 3.0 | 7.0 | 0.00 | 0.00 | 0.00 | 20 | 1005.0 |
| 20260503231742 | 70 | 22 | 4.0 | 7.0 | 0.00 | 0.00 | 0.00 | 20 | 1005.1 |
| 20260503231239 | 68 | 21 | 4.0 | 9.0 | 0.00 | 0.00 | 0.00 | 22 | 1005.1 |
| 20260503230734 | 69 | 3 | 6.0 | 7.0 | 0.00 | 0.00 | 0.00 | 22 | 1005.2 |
| 20260503230231 | 69 | 339 | 6.0 | 9.0 | 0.00 | 0.00 | 0.00 | 18 | 1005.2 |
| 20260503225724 | 68 | 30 | 6.0 | 11.0 | 0.00 | 0.00 | 0.00 | 21 | 1005.2 |
| 20260503225224 | 68 | 5 | 11.0 | 16.0 | 0.00 | 0.00 | 0.00 | 21 | 1005.4 |
| 20260503224721 | 69 | 351 | 5.0 | 19.0 | 0.00 | 0.00 | 0.00 | 18 | 1005.2 |
| 20260503224219 | 69 | 321 | 8.0 | 10.0 | 0.00 | 0.00 | 0.00 | 17 | 1005.3 |
| 20260503223716 | 70 | 271 | 7.0 | 13.0 | 0.00 | 0.00 | 0.00 | 17 | 1005.3 |
| 20260503223213 | 70 | 334 | 2.0 | 11.0 | 0.00 | 0.00 | 0.00 | 18 | 1005.2 |
| 20260503222710 | 70 | 334 | 6.0 | 8.0 | 0.00 | 0.00 | 0.00 | 19 | 1005.4 |
| 20260503222208 | 72 | 10 | 3.0 | 7.0 | 0.00 | 0.00 | 0.00 | 17 | 1005.4 |
| 20260503221706 | 71 | 334 | 0.0 | 3.0 | 0.00 | 0.00 | 0.00 | 19 | 1005.5 |
| 20260503221203 | 71 | 21 | 1.0 | 4.0 | 0.00 | 0.00 | 0.00 | 19 | 1005.3 |
| 20260503220700 | 72 | 338 | 0.0 | 2.0 | 0.00 | 0.00 | 0.00 | 17 | 1006.0 |
| 20260503220156 | 69 | 14 | 1.0 | 6.0 | 0.00 | 0.00 | 0.00 | 19 | 1005.8 |
| 20260503215653 | 69 | 326 | 2.0 | 4.0 | 0.00 | 0.00 | 0.00 | 20 | 1006.1 |
| 20260503215149 | 68 | 24 | 2.0 | 4.0 | 0.00 | 0.00 | 0.00 | 22 | 1006.0 |
| 20260503214648 | 69 | 356 | 4.0 | 4.0 | 0.00 | 0.00 | 0.00 | 21 | 1006.1 |
| 20260503214143 | 69 | 20 | 4.0 | 6.0 | 0.00 | 0.00 | 0.00 | 21 | 1006.5 |
| 20260503213638 | 69 | 358 | 6.0 | 8.0 | 0.00 | 0.00 | 0.00 | 24 | 1006.5 |
| 20260503213134 | 68 | 344 | 2.0 | 8.0 | 0.00 | 0.00 | 0.00 | 22 | 1006.4 |
| 20260503212631 | 67 | 22 | 7.0 | 11.0 | 0.00 | 0.00 | 0.00 | 22 | 1006.4 |
| 20260503212129 | 68 | 21 | 8.0 | 9.0 | 0.00 | 0.00 | 0.00 | 23 | 1006.4 |
| 20260503211626 | 69 | 2 | 6.0 | 7.0 | 0.00 | 0.00 | 0.00 | 21 | 1006.4 |
| 20260503211121 | 69 | 4 | 5.0 | 7.0 | 0.00 | 0.00 | 0.00 | 21 | 1006.5 |
| 20260503210618 | 68 | 40 | 8.0 | 8.0 | 0.00 | 0.00 | 0.00 | 21 | 1006.6 |
| 20260503210115 | 69 | 23 | 6.0 | 9.0 | 0.00 | 0.00 | 0.00 | 21 | 1006.6 |
| 20260503205611 | 70 | 29 | 7.0 | 8.0 | 0.00 | 0.00 | 0.00 | 21 | 1007.1 |
| 20260503205107 | 67 | 84 | 2.0 | 10.0 | 0.00 | 0.00 | 0.00 | 23 | 1007.0 |
| 20260503204604 | 67 | 33 | 9.0 | 13.0 | 0.00 | 0.00 | 0.00 | 25 | 1007.0 |
| 20260503204101 | 66 | 13 | 5.0 | 8.0 | 0.00 | 0.00 | 0.00 | 26 | 1007.3 |
| 20260503203558 | 66 | 75 | 6.0 | 8.0 | 0.00 | 0.00 | 0.00 | 24 | 1007.3 |
| 20260503203055 | 67 | 57 | 6.0 | 14.0 | 0.00 | 0.00 | 0.00 | 27 | 1007.0 |
| 20260503202553 | 67 | 31 | 10.0 | 14.0 | 0.00 | 0.00 | 0.00 | 26 | 1007.0 |
| 20260503202051 | 66 | 19 | 4.0 | 9.0 | 0.00 | 0.00 | 0.00 | 26 | 1007.1 |
| 20260503201549 | 69 | 43 | 7.0 | 8.0 | 0.00 | 0.00 | 0.00 | 23 | 1007.4 |
| 20260503201046 | 69 | 9 | 4.0 | 7.0 | 0.00 | 0.00 | 0.00 | 20 | 1007.3 |
| 20260503200542 | 70 | 220 | 4.0 | 11.0 | 0.00 | 0.00 | 0.00 | 20 | 1007.4 |
| 20260503200038 | 69 | 289 | 4.0 | 10.0 | 0.00 | 0.00 | 0.00 | 22 | 1007.3 |
| 20260503195535 | 73 | 50 | 1.0 | 3.0 | 0.00 | 0.00 | 0.00 | 20 | 1007.4 |
| 20260503195027 | 71 | 203 | 4.0 | 7.0 | 0.00 | 0.00 | 0.00 | 21 | 1007.7 |
| 20260503194525 | 69 | 289 | 2.0 | 8.0 | 0.00 | 0.00 | 0.00 | 22 | 1007.5 |
| 20260503194024 | 71 | 114 | 4.0 | 7.0 | 0.00 | 0.00 | 0.00 | 22 | 1008.0 |
| 20260503193521 | 71 | 170 | 9.0 | 11.0 | 0.00 | 0.00 | 0.00 | 21 | 1007.7 |
| 20260503193017 | 70 | 304 | 1.0 | 3.0 | 0.00 | 0.00 | 0.00 | 21 | 1007.7 |
| 20260503192513 | 69 | 125 | 4.0 | 4.0 | 0.00 | 0.00 | 0.00 | 22 | 1007.8 |
| 20260503192009 | 69 | 355 | 2.0 | 7.0 | 0.00 | 0.00 | 0.00 | 23 | 1008.0 |
| 20260503191506 | 69 | 159 | 4.0 | 7.0 | 0.00 | 0.00 | 0.00 | 24 | 1008.4 |
| 20260503191003 | 70 | 231 | 4.0 | 8.0 | 0.00 | 0.00 | 0.00 | 24 | 1008.2 |
| 20260503190459 | 69 | 207 | 2.0 | 7.0 | 0.00 | 0.00 | 0.00 | 24 | 1008.4 |
| 20260503185956 | 69 | 335 | 0.0 | 3.0 | 0.00 | 0.00 | 0.00 | 26 | 1008.6 |
| 20260503185452 | 68 | 337 | 1.0 | 3.0 | 0.00 | 0.00 | 0.00 | 26 | 1008.7 |
| 20260503184952 | 67 | 138 | 4.0 | 6.0 | 0.00 | 0.00 | 0.00 | 25 | 1008.9 |
| 20260503184448 | 68 | 107 | 5.0 | 6.0 | 0.00 | 0.00 | 0.00 | 27 | 1008.8 |
| 20260503183945 | 66 | 158 | 4.0 | 9.0 | 0.00 | 0.00 | 0.00 | 27 | 1009.1 |
| 20260503183441 | 65 | 45 | 4.0 | 8.0 | 0.00 | 0.00 | 0.00 | 29 | 1009.3 |
| 20260503182938 | 67 | 3 | 3.0 | 8.0 | 0.00 | 0.00 | 0.00 | 29 | 1009.3 |
| 20260503182437 | 65 | 62 | 4.0 | 4.0 | 0.00 | 0.00 | 0.00 | 29 | 1009.3 |
| 20260503181934 | 65 | 24 | 0.0 | 6.0 | 0.00 | 0.00 | 0.00 | 28 | 1009.4 |
| 20260503181431 | 67 | 26 | 4.0 | 4.0 | 0.00 | 0.00 | 0.00 | 29 | 1009.7 |
| 20260503180927 | 63 | 293 | 0.0 | 0.0 | 0.00 | 0.00 | 0.00 | 30 | 1009.7 |
| 20260503180426 | 63 | 32 | 5.0 | 7.0 | 0.00 | 0.00 | 0.00 | 30 | 1009.7 |
| 20260503175922 | 63 | 39 | 5.0 | 8.0 | 0.00 | 0.00 | 0.00 | 32 | 1009.7 |
| 20260503175420 | 65 | 65 | 4.0 | 6.0 | 0.00 | 0.00 | 0.00 | 31 | 1010.0 |
| 20260503174915 | 66 | 119 | 6.0 | 6.0 | 0.00 | 0.00 | 0.00 | 30 | 1010.2 |
| 20260503174414 | 65 | 263 | 1.0 | 3.0 | 0.00 | 0.00 | 0.00 | 30 | 1010.0 |
| 20260503173909 | 64 | 356 | 3.0 | 4.0 | 0.00 | 0.00 | 0.00 | 33 | 1010.2 |
| 20260503173405 | 62 | 34 | 2.0 | 2.0 | 0.00 | 0.00 | 0.00 | 34 | 1010.4 |
| 20260503172902 | 62 | 30 | 4.0 | 6.0 | 0.00 | 0.00 | 0.00 | 34 | 1010.4 |
| 20260503172400 | 62 | 31 | 2.0 | 2.0 | 0.00 | 0.00 | 0.00 | 34 | 1010.5 |
| 20260503171856 | 62 | 31 | 2.0 | 3.0 | 0.00 | 0.00 | 0.00 | 34 | 1010.2 |
| 20260503171353 | 61 | 1 | 4.0 | 4.0 | 0.00 | 0.00 | 0.00 | 35 | 1010.5 |
| 20260503170850 | 62 | 345 | 1.0 | 2.0 | 0.00 | 0.00 | 0.00 | 33 | 1010.9 |
| 20260503170346 | 60 | 28 | 4.0 | 6.0 | 0.00 | 0.00 | 0.00 | 35 | 1010.7 |